Simultaneous Nadir Overpasses (SNOs) Predictions

Prediction of SNOs between AQUA and NOAA-19 Satellite Orbit:

Table of predicted SNOs for the next 14.0 days since TLE Epoch: 5/15/2020
Index Date (AQUA) Time (AQUA) Lat,Lon (AQUA) SZA (AQUA ) Date (NOAA-19) Time (NOAA-19) Lat,Lon (NOAA-19) SZA (NOAA-19 ) Distance(km) Time Diff (sec)
1 05/17/2020 11:25:55 -79.82, 159.45 118.44 05/17/2020 11:25:54 -79.79, 159.36 118.44 2.95 1
2 05/19/2020 16:59:39 79.80,-103.87 61.07 05/19/2020 16:59:17 79.79,-103.90 61.08 1.02 22
3 05/19/2020 17:49:06 -79.83, 63.58 118.90 05/19/2020 17:50:12 -79.82, 63.64 118.94 1.56 66
4 05/21/2020 22:33:22 -79.77, -7.06 119.43 05/21/2020 22:32:31 -79.80, -7.08 119.38 3.19 51
5 05/21/2020 23:22:50 79.82, 160.20 60.64 05/21/2020 23:23:35 79.81, 160.26 60.61 1.73 45
6 05/24/2020 04:07:06 79.77, 89.52 60.16 05/24/2020 04:05:54 79.78, 89.41 60.20 2.34 72
7 05/24/2020 04:56:33 -79.78,-102.96 119.83 05/24/2020 04:56:50 -79.79,-103.12 119.81 3.34 17
8 05/26/2020 10:30:17 79.79, -6.43 59.80 05/26/2020 10:30:12 79.78, -6.48 59.80 1.15 5
9 05/28/2020 16:04:01 -79.78, 90.16 120.57 05/28/2020 16:03:28 -79.76, 90.06 120.56 3.07 33




NCC Satellite Simultaneous Nadir Overpasses (SNOs) Prediction Service
